(156950) = 2003 GE41

Discovered at Palomar on 2003-04-09 by NEAT.

Orbit

Orbit type: Main Belt

Note: WebGL enabled browser required.

epoch2024-03-31.0
epoch JD2460400.5
perihelion date2023-08-13.31728
perihelion JD2460169.81728
argument of perihelion (°)321.77021
ascending node (°)176.18781
inclination (°)6.23730
eccentricity0.2450846
perihelion distance (AU)1.9531260
Tisserand w.r.t. Jupiter3.4
ΔV w.r.t. Earth (km/sec)9.0
semimajor axis (AU)2.5872118
mean anomaly (°)54.63503
mean daily motion (°/day)0.23684060
aphelion distance (AU)3.221
period (years)4.16
P-vector [x]-0.74289795
P-vector [y]0.63780475
P-vector [z]0.20324304
Q-vector [x]-0.66936571
Q-vector [y]-0.71106379
Q-vector [z]-0.21526224
absolute magnitude16.85
phase slope0.15
uncertainty0
referenceE2024-G51
observations used399
oppositions14
arc length (days)8202
first opposition used2001
last opposition used2024
residual rms (arc-secs)0.74
perturbers coarse indicatorM-v
perturbers precise indicator003Ek
first observation date used2001-10-20.0
last observation date used2024-04-04.0
computer nameMPCLINUX
JD of orbit computation2456581.599081
perihelion JD uncertainty (days)4.7690E-05
argument of perihelion uncertainty (°)4.1109E-05
ascending node uncertainty (°)2.5818E-05
inclination uncertainty (°)6.6516E-06
eccentricity uncertainty 1.1266E-07
perihelion distance uncertainty (AU)3.2007E-07
Minimum Orbit Intersection Distances (in AU)
for orbit epoch: 2460400.5, reference: E2024-G51
Mercury1.61294
Venus1.24262
Earth0.97115
Mars0.32938
Jupiter1.83435
Saturn6.52921
Uranus16.3648
Neptune26.8286

Observations

399 total observations over interval: 2001 10 20.26939 – 2023 01 18.298444
These data are available for download (format description).

Date (UT) J2000 RA J2000 Dec Magn Location Ref
2001 10 20.26939 01 32 26.34 +04 43 53.9 18.6   704 – Lincoln Laboratory ETS, New Mexico MPS 172810
2001 10 20.31869 01 32 23.70 +04 43 31.7 19.1   704 – Lincoln Laboratory ETS, New Mexico MPS 172810
2001 10 20.33513 01 32 22.78 +04 43 24.4 19.1   704 – Lincoln Laboratory ETS, New Mexico MPS 172810
2003 04 01.41492 13 50 17.51 -06 35 15.1 18.8 R 695 – Kitt Peak MPS 78462
2003 04 01.48531 13 50 14.27 -06 34 39.9   695 – Kitt Peak MPS 78462
2003 04 02.45505 13 49 31.53 -06 26 34.5 20.4   608 – Haleakala-AMOS MPS 78462
2003 04 02.46584 13 49 30.99 -06 26 29.2 20.9   608 – Haleakala-AMOS MPS 78462
2003 04 02.47666 13 49 30.47 -06 26 23.5 20.2   608 – Haleakala-AMOS MPS 78462
2003 04 09.30090 13 44 07.66 -05 29 04.6 19.0   644 – Palomar Mountain/NEAT MPS 76508
2003 04 09.38360 13 44 03.41 -05 28 23.2 19.0   644 – Palomar Mountain/NEAT MPS 76508
2003 04 09.45557 13 43 59.70 -05 27 46.7 19.0   644 – Palomar Mountain/NEAT MPS 76508
2003 04 10.39987 13 43 13.19 -05 19 54.8 19.6 V 691 – Steward Observatory, Kitt Peak-Spacewatch MPS 76508
2003 04 10.42711 13 43 11.79 -05 19 41.3 19.4 V 691 – Steward Observatory, Kitt Peak-Spacewatch MPS 76508
2003 04 10.45449 13 43 10.38 -05 19 27.5 19.7 V 691 – Steward Observatory, Kitt Peak-Spacewatch MPS 76508
2003 04 28.19252 13 29 03.71 -03 07 31.0 19.9 V 691 – Steward Observatory, Kitt Peak-Spacewatch MPS 78462
2003 04 28.21930 13 29 02.51 -03 07 21.7 20.0 V 691 – Steward Observatory, Kitt Peak-Spacewatch MPS 78462
2003 04 28.24644 13 29 01.31 -03 07 11.5 20.4 V 691 – Steward Observatory, Kitt Peak-Spacewatch MPS 78462
2003 05 05.21817 13 24 32.83 -02 29 09.7 19.6   704 – Lincoln Laboratory ETS, New Mexico MPS 78462
2003 05 05.23073 13 24 32.40 -02 29 06.0 19.5   704 – Lincoln Laboratory ETS, New Mexico MPS 78462
2003 05 05.24302 13 24 31.84 -02 29 01.7 19.6   704 – Lincoln Laboratory ETS, New Mexico MPS 78462
2003 05 05.25546 13 24 31.40 -02 28 58.3 19.6   704 – Lincoln Laboratory ETS, New Mexico MPS 78462
2005 10 01.28189 00 35 56.68 +01 44 46.5 19.4 V G96 – Mt. Lemmon Survey MPS 172810
2005 10 01.28755 00 35 56.40 +01 44 43.8 19.7 V G96 – Mt. Lemmon Survey MPS 172810
2005 10 01.29324 00 35 56.11 +01 44 41.3 19.7 V G96 – Mt. Lemmon Survey MPS 172810
2005 10 01.29885 00 35 55.82 +01 44 38.7 19.7 V G96 – Mt. Lemmon Survey MPS 172810
2005 10 20.270907 00 20 34.634 -00 28 53.00 21.06 V 645 – Apache Point-Sloan Digital Sky Survey MPS 390068
2005 10 20.27127 00 20 34.63 -00 28 53.0 21.3   705 – Apache Point MPS 211699
2005 10 20.27209 00 20 34.60 -00 28 53.3 20.8 V 705 – Apache Point MPS 211699
2005 10 20.274379 00 20 34.475 -00 28 54.39 21.91   645 – Apache Point-Sloan Digital Sky Survey MPS 390068
2005 10 25.258137 00 17 09.317 -00 58 28.46 21.03 V 645 – Apache Point-Sloan Digital Sky Survey MPS 390068
2005 10 25.261609 00 17 09.195 -00 58 29.22 22.02   645 – Apache Point-Sloan Digital Sky Survey MPS 390068
2005 10 26.241657 00 16 31.775 -01 03 54.31 21.06 V 645 – Apache Point-Sloan Digital Sky Survey MPS 390068
2005 10 26.24203 00 16 31.77 -01 03 54.3 22.0   705 – Apache Point MPS 211699
2005 10 26.24286 00 16 31.74 -01 03 54.6 21.1 V 705 – Apache Point MPS 211699
2005 10 26.245129 00 16 31.637 -01 03 55.43 21.98   645 – Apache Point-Sloan Digital Sky Survey MPS 390068
2005 10 28.325557 00 15 15.578 -01 14 56.09 21.17 V 645 – Apache Point-Sloan Digital Sky Survey MPS 390068
2005 10 28.32591 00 15 15.58 -01 14 56.1 22.1   705 – Apache Point MPS 211699
2005 10 28.32675 00 15 15.55 -01 14 56.4 21.3 V 705 – Apache Point MPS 211699
2005 10 28.329029 00 15 15.444 -01 14 57.06 21.94   645 – Apache Point-Sloan Digital Sky Survey MPS 390068
2005 10 29.24766 00 14 43.62 -01 19 36.5 20.9 V G96 – Mt. Lemmon Survey MPS 172810
2005 10 29.25375 00 14 43.40 -01 19 38.4 20.8 V G96 – Mt. Lemmon Survey MPS 172810
2005 10 29.25986 00 14 43.18 -01 19 40.0 20.9 V G96 – Mt. Lemmon Survey MPS 172810
2005 10 29.26596 00 14 42.97 -01 19 41.8 20.8 V G96 – Mt. Lemmon Survey MPS 172810
2007 02 13.36422 11 51 02.81 -02 03 25.6 18.5 C 704 – Lincoln Laboratory ETS, New Mexico MPS 291339
2007 02 13.37531 11 51 02.65 -02 03 20.6 18.7 C 704 – Lincoln Laboratory ETS, New Mexico MPS 291339
2007 02 13.38697 11 51 02.45 -02 03 17.8 19.1 C 704 – Lincoln Laboratory ETS, New Mexico MPS 291339
2007 02 13.39804 11 51 02.25 -02 03 14.2 18.9 C 704 – Lincoln Laboratory ETS, New Mexico MPS 291339
2007 02 13.41039 11 51 02.02 -02 03 10.4 18.8 C 704 – Lincoln Laboratory ETS, New Mexico MPS 291339
2007 02 17.42270 11 49 48.97 -01 39 28.8 19.4 V G96 – Mt. Lemmon Survey MPS 200352
2007 02 17.42714 11 49 48.82 -01 39 27.3 19.3 V G96 – Mt. Lemmon Survey MPS 200352
2007 02 17.43165 11 49 48.75 -01 39 25.5 19.4 V G96 – Mt. Lemmon Survey MPS 200352
2007 02 17.43620 11 49 48.64 -01 39 23.7 19.3 V G96 – Mt. Lemmon Survey MPS 200352
2007 02 23.31859 11 47 13.81 -00 57 29.0 19.0 V G96 – Mt. Lemmon Survey MPS 201491
2007 02 23.32524 11 47 13.56 -00 57 25.9 19.1 V G96 – Mt. Lemmon Survey MPS 201491
2007 02 23.33117 11 47 13.40 -00 57 22.9 19.0   704 – Lincoln Laboratory ETS, New Mexico MPS 201491
2007 02 23.33184 11 47 13.30 -00 57 22.8 18.7 V G96 – Mt. Lemmon Survey MPS 201491
2007 02 23.33846 11 47 13.12 -00 57 19.6 19.2 V G96 – Mt. Lemmon Survey MPS 201491
2007 02 23.34351 11 47 12.95 -00 57 17.3 19.0   704 – Lincoln Laboratory ETS, New Mexico MPS 201491
2007 02 23.36675 11 47 12.13 -00 57 06.9 19.0   704 – Lincoln Laboratory ETS, New Mexico MPS 201491
2007 02 23.37836 11 47 11.78 -00 57 00.3 19.3   704 – Lincoln Laboratory ETS, New Mexico MPS 201491
2007 02 25.32223 11 46 09.56 -00 41 29.5 19.1   704 – Lincoln Laboratory ETS, New Mexico MPS 201491
2007 02 25.33384 11 46 09.12 -00 41 24.2 19.5   704 – Lincoln Laboratory ETS, New Mexico MPS 201491
2007 02 25.34535 11 46 08.73 -00 41 17.9 18.9   704 – Lincoln Laboratory ETS, New Mexico MPS 201491
2007 02 25.35688 11 46 08.29 -00 41 12.1 19.0   704 – Lincoln Laboratory ETS, New Mexico MPS 201491
2007 02 25.36841 11 46 07.96 -00 41 07.2 18.7   704 – Lincoln Laboratory ETS, New Mexico MPS 201491
2007 02 27.33329 11 45 00.09 -00 24 40.8   691 – Steward Observatory, Kitt Peak-Spacewatch MPS 201491
2007 02 27.35093 11 44 59.42 -00 24 31.6   691 – Steward Observatory, Kitt Peak-Spacewatch MPS 201491
2007 02 27.36611 11 44 58.84 -00 24 24.0   691 – Steward Observatory, Kitt Peak-Spacewatch MPS 201491
2007 03 09.21043 11 38 25.71 +01 06 07.6 19.3 V 691 – Steward Observatory, Kitt Peak-Spacewatch MPS 202334
2007 03 09.22809 11 38 24.92 +01 06 17.7 20.1 V 691 – Steward Observatory, Kitt Peak-Spacewatch MPS 202334
2007 03 09.24574 11 38 24.12 +01 06 28.0 19.2 V 691 – Steward Observatory, Kitt Peak-Spacewatch MPS 202334
2007 03 10.72188 11 37 19.96 +01 20 46.6 17.5 R D29 – Purple Mountain Observatory, XuYi Station MPS 205528
2007 03 10.75052 11 37 18.63 +01 21 04.3 18.2 R D29 – Purple Mountain Observatory, XuYi Station MPS 205528
2007 03 10.77579 11 37 17.49 +01 21 18.9 18.9 R D29 – Purple Mountain Observatory, XuYi Station MPS 205528
2007 03 10.80099 11 37 16.35 +01 21 33.1 19.2 R D29 – Purple Mountain Observatory, XuYi Station MPS 205528
2007 03 14.31511 11 34 43.31 +01 55 52.7 18.5   704 – Lincoln Laboratory ETS, New Mexico MPS 203008
2007 03 14.32584 11 34 42.77 +01 56 00.1 18.6   704 – Lincoln Laboratory ETS, New Mexico MPS 203008
2007 03 14.33658 11 34 42.31 +01 56 05.5 18.5   704 – Lincoln Laboratory ETS, New Mexico MPS 203008
2007 03 14.34731 11 34 41.81 +01 56 11.7 18.7   704 – Lincoln Laboratory ETS, New Mexico MPS 203008
2007 03 14.35895 11 34 41.26 +01 56 18.2 18.5   704 – Lincoln Laboratory ETS, New Mexico MPS 203008
2007 03 15.27078 11 34 01.74 +02 05 13.4 17.9   704 – Lincoln Laboratory ETS, New Mexico MPS 203008
2007 03 15.28173 11 34 01.22 +02 05 19.0 17.8   704 – Lincoln Laboratory ETS, New Mexico MPS 203008
2007 03 15.29281 11 34 00.69 +02 05 25.6 18.0   704 – Lincoln Laboratory ETS, New Mexico MPS 203008
2007 03 15.31496 11 33 59.69 +02 05 38.3 17.9   704 – Lincoln Laboratory ETS, New Mexico MPS 203008
2007 03 16.30671 11 33 16.66 +02 15 18.6 17.9 V G96 – Mt. Lemmon Survey MPS 204560
2007 03 16.31318 11 33 16.38 +02 15 22.5 17.9 V G96 – Mt. Lemmon Survey MPS 204560
